FW8431 Weather Reports


Display with metric or nautical units.
time (UTC)temp
F
wind
direction
speed
MPH
gust
MPH
rain 1hr
in
rain 24hr
in
rain mn
in
humidity
%
barometer
mb
20260505083103 50 0 0.0 0.0 0.00 0.00 0.00 73 1016.8
20260505081553 50 0 0.0 0.0 0.00 0.00 0.00 73 1016.7
20260505080050 50 0 0.0 0.0 0.00 0.00 0.00 72 1016.6
20260505074549 51 0 0.0 0.0 0.00 0.00 0.00 71 1016.4
20260505073054 51 0 0.0 0.0 0.00 0.00 0.00 72 1016.4
20260505071554 50 0 0.0 0.0 0.00 0.00 0.00 72 1016.5
20260505064556 51 0 0.0 0.0 0.00 0.00 0.00 70 1016.5
20260505063052 51 0 0.0 0.0 0.00 0.00 0.00 71 1016.6
20260505061613 51 0 0.0 0.0 0.00 0.00 0.00 71 1016.6
20260505060058 51 0 0.0 0.0 0.00 0.00 0.00 71 1016.6
20260505054555 52 0 0.0 0.0 0.00 0.00 0.00 71 1016.8
20260505053052 52 0 0.0 0.0 0.00 0.00 0.00 70 1016.9
20260505051554 52 0 0.0 0.0 0.00 0.00 0.00 71 1017.0
20260505041555 52 0 0.0 0.0 0.00 0.00 0.00 72 1016.7
20260505034550 53 0 0.0 0.0 0.00 0.00 0.00 70 1016.9
20260505033102 54 0 0.0 0.0 0.00 0.00 0.00 70 1017.1
20260505031556 54 0 0.0 0.0 0.00 0.00 0.00 69 1017.3
20260505030055 55 0 0.0 0.0 0.00 0.00 0.00 69 1017.4
20260505024553 55 0 0.0 0.0 0.00 0.00 0.00 69 1017.3
20260505023054 55 0 1.0 2.0 0.00 0.00 0.00 69 1017.3
20260505021552 55 21 1.0 2.0 0.00 0.00 0.00 68 1017.3
20260505020055 56 21 1.0 3.0 0.00 0.00 0.00 67 1017.1
20260505014553 57 0 1.0 2.0 0.00 0.00 0.00 66 1016.8
20260505013058 58 21 0.0 2.0 0.00 0.00 0.00 65 1016.7
20260505011613 59 21 0.0 4.0 0.00 0.00 0.00 63 1016.5
20260505010106 60 352 0.0 2.0 0.00 0.00 0.00 61 1016.4
20260505004600 61 351 0.0 4.0 0.00 0.00 0.00 58 1016.2
20260505003054 62 348 0.0 2.0 0.00 0.00 0.00 56 1016.0
20260505001552 64 348 1.0 5.0 0.00 0.00 0.00 54 1015.8
20260505000059 65 0 2.0 9.0 0.00 0.00 0.00 51 1015.8
20260504234603 66 202 4.0 11.0 0.00 0.00 0.00 50 1015.7
20260504233058 67 210 4.0 11.0 0.00 0.00 0.00 48 1015.4
20260504231553 68 242 4.0 12.0 0.00 0.00 0.00 46 1015.3
20260504230056 68 248 3.0 5.0 0.00 0.00 0.00 47 1015.1
20260504224554 68 149 3.0 8.0 0.00 0.00 0.00 46 1015.1
20260504223055 69 118 2.0 8.0 0.00 0.00 0.00 45 1015.1
20260504221552 70 0 0.0 9.0 0.00 0.00 0.00 44 1015.2
20260504220104 70 188 3.0 11.0 0.00 0.00 0.00 42 1015.0
20260504214558 71 227 1.0 9.0 0.00 0.00 0.00 41 1015.1
20260504213110 71 127 5.0 10.0 0.00 0.00 0.00 38 1015.0
20260504211556 73 215 2.0 6.0 0.00 0.00 0.00 35 1015.2
20260504210050 72 0 2.0 10.0 0.00 0.00 0.00 37 1015.1
20260504204600 72 0 4.0 9.0 0.00 0.00 0.00 33 1015.3
20260504203058 72 142 2.0 10.0 0.00 0.00 0.00 38 1015.5
20260504201557 72 54 1.0 6.0 0.00 0.00 0.00 37 1015.6
20260504200056 71 106 4.0 9.0 0.00 0.00 0.00 39 1015.8
20260504194558 71 160 2.0 7.0 0.00 0.00 0.00 42 1015.9
20260504193109 70 175 1.0 7.0 0.00 0.00 0.00 43 1016.1
20260504191553 70 135 1.0 7.0 0.00 0.00 0.00 38 1016.3
20260504190059 70 168 2.0 9.0 0.00 0.00 0.00 43 1016.5
20260504184550 70 211 0.0 5.0 0.00 0.00 0.00 37 1016.6
20260504183058 71 0 2.0 6.0 0.00 0.00 0.00 35 1016.7
20260504181552 70 238 1.0 7.0 0.00 0.00 0.00 40 1017.0
20260504180130 68 235 2.0 10.0 0.00 0.00 0.00 43 1017.2
20260504174556 67 0 3.0 9.0 0.00 0.00 0.00 41 1017.4
20260504173054 67 121 2.0 8.0 0.00 0.00 0.00 42 1017.6
20260504171554 67 198 4.0 10.0 0.00 0.00 0.00 43 1017.7
20260504120104 36 0 0.0 0.0 0.00 0.00 0.00 91 1018.7
20260504100115 35 0 0.0 0.0 0.00 0.00 0.00 87 1018.6